This demonstration page uses our WeatherBlox Daily Observations layout. Learn more.

Left ArrowRight Arrow

41.55636, -103.73856

Hourly Observations for April 14, 2018

Temp ( °F °C ) Dew Point ( °F °C ) Humidity (%) Winds ( mph kmh ) Pressure ( in mb ) Visibility ( mi km ) Precip ( " mm )
12:58 am 00:58 Windy with Snow Likely 18 -7.8 17 -8.5 95 95 N 23 37 30.29 1026 10 16 N/A
1:58 am 01:58 Windy with Snow Showers Likely 18 -7.7 17 -8.5 94 94 N 23 37 30.29 1026 10 16 N/A
2:58 am 02:58 Windy with Snow Likely 20 -6.6 19 -7.2 96 96 N 25 41 30.26 1025 6 10 N/A
3:58 am 03:58 Cloudy with Snow 22 -5.7 21 -6.2 96 96 N 26 43 30.26 1025 1 2 N/A
4:58 am 04:58 Windy with Snow Likely 24 -4.6 23 -5 97 97 N 30 48 30.27 1025 7 11 N/A
5:58 am 05:58 Windy with Snow Likely 25 -4.1 24 -4.6 96 96 N 28 44 30.27 1025 2 3 0.00 0.00
6:58 am 06:58 Cloudy 26 -3.6 25 -4.1 96 96 NNW 28 44 30.28 1025 6 10 N/A
7:58 am 07:58 Windy with Snow Showers Likely 26 -3.6 25 -4.1 96 96 N 26 43 30.31 1027 5 8 N/A
8:58 am 08:58 Mostly Cloudy 26 -3.2 25 -3.7 96 96 N 26 43 30.32 1027 10 16 N/A
9:58 am 09:58 Sunny 27 -2.6 26 -3.3 95 95 N 24 39 30.32 1027 10 16 0.01 0.25
10:58 am 10:58 Mostly Sunny 30 -1.3 28 -2.3 93 93 N 22 35 30.32 1027 10 16 N/A
11:58 am 11:58 Mostly Sunny 31 -0.4 28 -2.4 87 87 N 24 39 30.30 1026 10 16 0.00 0.00
12:58 pm 12:58 Sunny 33 0.6 28 -2.2 82 82 N 25 41 30.28 1026 10 16 N/A
1:58 pm 13:58 Sunny 35 1.6 30 -0.9 84 84 N 24 39 30.27 1025 10 16 N/A
2:58 pm 14:58 Sunny 38 3.2 29 -1.9 70 70 N 25 41 30.25 1024 10 16 N/A
3:58 pm 15:58 Sunny 39 4.1 28 -2.5 63 63 N 23 37 30.22 1023 10 16 N/A
4:58 pm 16:58 Sunny 40 4.4 30 -1.3 67 67 NNE 17 28 30.21 1023 10 16 N/A
5:58 pm 17:58 Sunny 39 4.1 30 -0.9 70 70 NNE 12 19 30.22 1023 10 16 N/A
6:58 pm 18:58 Sunny 37 2.5 29 -1.6 75 75 NE 15 24 30.22 1023 10 16 N/A
7:58 pm 19:58 Clear 31 -0.8 28 -2.4 89 89 E 9 15 30.25 1024 10 16 N/A
8:58 pm 20:58 Clear 27 -2.8 24 -4.4 89 89 ESE 6 9 30.29 1026 10 16 N/A
9:58 pm 21:58 Clear 25 -4.1 22 -5.7 89 89 Calm 30.30 1026 10 16 N/A
10:58 pm 22:58 Clear 23 -4.8 22 -5.5 95 95 WSW 6 9 30.31 1027 10 16 N/A
11:58 pm 23:58 Clear 23 -4.8 22 -5.5 95 95 WSW 5 7 30.31 1027 10 16 N/A

Powered by AerisWeather